Showing default

CALSPHERE 2, 902

Orbit data source: Space-Track

CALSPHERE 2, 902 is a payload satellite owned by NRL (US) in LEO that was launched on Tue, 06 Oct 1964 UTC via a THOR ABLESTAR launch vehicle from the Air Force Western Test Range (AFWTR). Payload-class satellites include a variety of spacecraft equipped with specific instruments for various scientific and technological missions. These include communications satellites like Starlink; space stations such as the ISS; scientific satellites like the Hubble; Earth observation satellites from companies like Planet Labs, Umbra, and HawkEye 360; GPS; miniature CubeSats for education and research; and military/defense satellites.

Loading next visibility...
Identifier
902, 1964-063E
Orbit
LEO
Country
Flag of USUS
Related business
Manufacturer
NRL
Mission
Operational spacecraft
Bus & Motor
NRL 14", Unknown motor
Mass
10 kg wet, 10 kg dry
Launch date (UTC)
1964-10-06 (62 years ago)
Launch vehicle
THOR ABLESTAR
Launch site
Air Force Western Test Range (AFWTR)
Object type
Payload
Rocket body
Debris
Shape & HBR
Unknown
Radar Cross Section
Medium (>0.1 m² and <1 m²)

Expand to show TLE details & history
Last TLE update: 9 hours ago

TLE from 9 hours ago
0 CALSPHERE 2
1   902U 64063E   26177.71951486  .00000054  00000-0  67478-4 0  9999
2   902  90.2368  76.0242 0017912 193.7994 225.7486 13.52900867857559
Epoch: 2026-06-26T17:16Z
TLE epoch observation values (Epoch: 2026-06-26T17:16:06.083Z)
Latitude
59.49076°
Longitude
-98.24493°
Altitude
1,081.096 km
Speed
7.313 km/s
True Right ascension
05h 02m 29s
True Declination
59° 20' 48"
Sunlit
Object was in daylight at epoch
Visualization orbit readout
Latitude
Unknown
Longitude
Unknown
Altitude
Unknown
Speed
Unknown
Apparent Right ascension
Unknown
Apparent Declination
Unknown
Sunlit
N/A
Visualization observer readout
Local Sidereal Time
13:07:53
Azimuth
Unknown
Elevation
Unknown
Doppler factor
Unknown
Orbital elements
Apogee altitude
1,071.971 km
Perigee altitude
1,045.33 km
Semi-major axis
7,436.787 km
Eccentricity
0.00179
Inclination
90.2368°
RAAN
76.0242°
Arg. of periapsis
193.7994°
True anomaly
225.60181°
Mean anomaly
225.7486°
Eccentric anomaly
225.67518°
Mean motion
3.38427 °/min
Orbital period
106.37 mins
BSTAR
0.000067478
Loading maneuver chart data...
Computing Atmospheric mass density...
Loading historical data...
Loading historical data...
Loading historical data...
Loading historical data...
Loading historical data...
Loading historical data...
Loading historical data...

Documentation

Showing up to 5 results
|